TimeAST,TemperatureF,Dew PointF,Humidity,Sea Level PressureIn,VisibilityMPH,Wind Direction,Wind SpeedMPH,Gust SpeedMPH,PrecipitationIn,Events,Conditions,WindDirDegrees,DateUTC
12:53 AM,77.0,73.9,90,29.87,10.0,WSW,4.6,-,N/A,,Clear,240,2013-05-05 04:53:00
1:53 AM,77.0,73.9,90,29.84,10.0,SW,5.8,-,N/A,,Clear,220,2013-05-05 05:53:00
2:53 AM,75.0,73.0,94,29.83,10.0,WSW,3.5,-,N/A,,Clear,240,2013-05-05 06:53:00
3:53 AM,75.0,73.0,94,29.83,10.0,Calm,Calm,-,N/A,,Clear,0,2013-05-05 07:53:00
4:53 AM,75.0,73.0,94,29.85,10.0,Calm,Calm,-,N/A,,Clear,0,2013-05-05 08:53:00
5:53 AM,73.9,73.0,97,29.87,10.0,SW,3.5,-,N/A,,Clear,230,2013-05-05 09:53:00
6:53 AM,75.9,75.0,97,29.89,9.0,Calm,Calm,-,N/A,,Partly Cloudy,0,2013-05-05 10:53:00
7:53 AM,79.0,73.9,84,29.91,10.0,SW,5.8,-,N/A,,Mostly Cloudy,230,2013-05-05 11:53:00
8:53 AM,84.0,75.0,74,29.92,10.0,Variable,6.9,-,N/A,,Mostly Cloudy,0,2013-05-05 12:53:00
9:53 AM,84.9,75.0,72,29.94,10.0,SW,8.1,16.1,N/A,,Partly Cloudy,230,2013-05-05 13:53:00
10:53 AM,87.1,73.0,63,29.92,10.0,SW,15.0,-,N/A,,Clear,220,2013-05-05 14:53:00
11:53 AM,87.1,73.9,65,29.92,10.0,SSW,15.0,-,N/A,,Clear,200,2013-05-05 15:53:00
12:53 PM,84.9,73.9,69,29.91,10.0,SW,12.7,20.7,N/A,,Mostly Cloudy,220,2013-05-05 16:53:00
1:53 PM,88.0,73.0,61,29.89,10.0,SSW,13.8,20.7,N/A,,Clear,210,2013-05-05 17:53:00
2:53 PM,88.0,75.0,65,29.89,10.0,SSW,15.0,-,N/A,,Clear,200,2013-05-05 18:53:00
3:53 PM,84.9,75.9,74,29.88,10.0,SSW,16.1,-,N/A,,Clear,200,2013-05-05 19:53:00
4:53 PM,82.9,75.0,77,29.89,10.0,South,8.1,-,N/A,,Mostly Cloudy,170,2013-05-05 20:53:00
5:16 PM,78.8,75.2,89,29.90,7.0,North,8.1,-,0.01,Rain,Light Rain,10,2013-05-05 21:16:00
5:29 PM,77.0,75.2,94,29.91,1.8,NNE,4.6,-,0.09,Rain,Heavy Rain,20,2013-05-05 21:29:00
5:39 PM,75.2,75.2,100,29.90,2.0,NE,3.5,-,0.17,Rain,Rain,40,2013-05-05 21:39:00
5:49 PM,75.2,75.2,100,29.91,9.0,North,6.9,-,0.18,Rain,Light Rain,360,2013-05-05 21:49:00
5:53 PM,75.9,75.9,100,29.91,10.0,North,5.8,-,0.18,,Overcast,350,2013-05-05 21:53:00
6:53 PM,77.0,75.9,96,29.92,9.0,Calm,Calm,-,N/A,,Mostly Cloudy,0,2013-05-05 22:53:00
7:53 PM,78.1,77.0,96,29.94,10.0,Calm,Calm,-,N/A,,Overcast,0,2013-05-05 23:53:00
8:53 PM,75.9,75.9,100,29.96,10.0,Calm,Calm,-,N/A,,Partly Cloudy,0,2013-05-06 00:53:00
9:53 PM,75.0,75.0,100,29.97,10.0,Calm,Calm,-,N/A,,Clear,0,2013-05-06 01:53:00
10:53 PM,75.9,75.0,97,29.97,10.0,Calm,Calm,-,N/A,,Clear,0,2013-05-06 02:53:00
11:53 PM,75.0,75.0,100,29.96,10.0,SW,4.6,-,N/A,,Clear,230,2013-05-06 03:53:00